Hourly Data Report for April 12, 2020

TORONTO CITY
ONTARIO
Current Station Operator: ECCC - MSC

43°40'00.000" N
79°24'00.000" W
112.50 m
6158355
71508
XTO

Download Data

Hourly Data (April 2020)
Hourly Data Report for April 12, 2020
TIME
LST
Temp Definition
°C
Dew Point Definition
°C
Rel Hum Definition
%
Precip. Amount Definition
mm

Wind Dir Definition
10's deg

Wind Spd Definition
km/h
Visibility Definition
km
Stn Press Definition
kPa
Hmdx Definition


Wind Chill Definition


Weather Definition


00:00 5.6 -1.0 63 0.0       100.03     LegendNANA
01:00 5.1 -1.2 64 0.0       100.00     LegendNANA
02:00 5.3 -2.1 59 0.0       99.95     LegendNANA
03:00 5.9 -2.6 54 0.0       99.95     LegendNANA
04:00 6.1 -2.1 56 0.0       99.96     LegendNANA
05:00 6.3 -1.5 57 0.0       99.92     LegendNANA
06:00 5.9 -0.4 64 0.0       99.94     LegendNANA
07:00 6.5 0.0 63 0.0       100.01     LegendNANA
08:00 6.8 -0.2 61 0.0       100.03     LegendNANA
09:00 7.0 0.1 61 0.0       100.06     LegendNANA
10:00 8.1 0.0 57 0.0       100.04     LegendNANA
11:00 8.7 -0.7 52 0.0       99.99     LegendNANA
12:00 9.9 0.9 53 0.0       99.94     LegendNANA
13:00 10.0 -1.0 46 0.0       99.84     LegendNANA
14:00 10.9 -0.7 45 0.0       99.83     LegendNANA
15:00 10.9 -1.6 41 0.0       99.81     LegendNANA
16:00 11.7 -2.3 38 0.0       99.70     LegendNANA
17:00 11.3 -1.7 40 0.0       99.63     LegendNANA
18:00 10.8 -0.9 44 0.0       99.63     LegendNANA
19:00 11.4 -0.8 43 0.0       99.58     LegendNANA
20:00 11.3 0.2 46 0.0       99.54     LegendNANA
21:00 11.6 0.2 46 0.0       99.43     LegendNANA
22:00 11.0 1.1 50 0.0       99.23     LegendNANA
23:00 12.5 0.8 45 0.0       99.09     LegendNANA

Notes on Data Quality.

Legend

  • E = Estimated
  • M = Missing
  • NA = Not Available*
  • [empty] = Indicates an unobserved value
Date modified: